Time,TemperatureF,DewpointF,PressureIn,WindDirection,WindDirectionDegrees,WindSpeedMPH,WindSpeedGustMPH,Humidity,HourlyPrecipIn,Conditions,Clouds,dailyrainin,SoftwareType,DateUTC
2013-05-25 00:02:00,52.0,42.0,30.35,ENE,60,7.0,7.0,68,0.00,,,0.00,,2013-05-25 05:02:00,
2013-05-25 00:12:00,52.0,42.0,30.35,ENE,60,7.0,7.0,68,0.00,,,0.00,,2013-05-25 05:12:00,
2013-05-25 00:22:00,52.0,42.0,30.35,ENE,60,7.0,7.0,68,0.00,,,0.00,,2013-05-25 05:22:00,
2013-05-25 00:32:00,55.0,37.0,30.33,East,100,12.0,12.0,50,0.00,,,0.00,,2013-05-25 05:32:00,
2013-05-25 00:42:00,55.0,37.0,30.33,East,100,12.0,12.0,50,0.00,,,0.00,,2013-05-25 05:42:00,
2013-05-25 00:52:00,55.0,37.0,30.33,East,100,12.0,12.0,50,0.00,,,0.00,,2013-05-25 05:52:00,
2013-05-25 01:02:00,55.0,37.0,30.33,East,100,12.0,12.0,50,0.00,,,0.00,,2013-05-25 06:02:00,
2013-05-25 01:12:00,55.0,37.0,30.33,East,100,12.0,12.0,50,0.00,,,0.00,,2013-05-25 06:12:00,
2013-05-25 01:21:00,55.0,37.0,30.33,East,100,12.0,12.0,50,0.00,,,0.00,,2013-05-25 06:21:00,
2013-05-25 01:32:00,53.0,37.0,30.31,East,90,10.0,12.0,54,0.00,,,0.00,,2013-05-25 06:32:00,
2013-05-25 01:42:00,53.0,37.0,30.31,East,90,10.0,12.0,54,0.00,,,0.00,,2013-05-25 06:42:00,
2013-05-25 01:52:00,53.0,37.0,30.31,East,90,10.0,12.0,54,0.00,,,0.00,,2013-05-25 06:52:00,
2013-05-25 02:01:00,53.0,37.0,30.31,East,90,10.0,10.0,54,0.00,,,0.00,,2013-05-25 07:01:00,
2013-05-25 02:11:00,53.0,37.0,30.31,East,90,10.0,10.0,54,0.00,,,0.00,,2013-05-25 07:11:00,
2013-05-25 02:21:00,53.0,37.0,30.31,East,90,10.0,10.0,54,0.00,,,0.00,,2013-05-25 07:21:00,
2013-05-25 02:32:00,52.0,36.0,30.29,East,90,10.0,10.0,54,0.00,,,0.00,,2013-05-25 07:32:00,
2013-05-25 02:42:00,52.0,36.0,30.29,East,90,10.0,10.0,54,0.00,,,0.00,,2013-05-25 07:42:00,
2013-05-25 02:52:00,52.0,36.0,30.29,East,90,10.0,10.0,54,0.00,,,0.00,,2013-05-25 07:52:00,
2013-05-25 03:02:00,52.0,36.0,30.29,East,90,10.0,10.0,54,0.00,,,0.00,,2013-05-25 08:02:00,
2013-05-25 03:11:00,52.0,36.0,30.29,East,90,10.0,10.0,54,0.00,,,0.00,,2013-05-25 08:11:00,
2013-05-25 03:22:00,52.0,36.0,30.29,East,90,10.0,10.0,54,0.00,,,0.00,,2013-05-25 08:22:00,
2013-05-25 03:32:00,51.0,37.0,30.27,East,80,7.0,10.0,58,0.00,,,0.00,,2013-05-25 08:32:00,
2013-05-25 03:42:00,51.0,37.0,30.27,East,80,7.0,7.0,58,0.00,,,0.00,,2013-05-25 08:42:00,
2013-05-25 03:52:00,51.0,37.0,30.27,East,80,7.0,7.0,58,0.00,,,0.00,,2013-05-25 08:52:00,
2013-05-25 04:02:00,51.0,37.0,30.27,East,80,7.0,7.0,58,0.00,,,0.00,,2013-05-25 09:02:00,
2013-05-25 04:11:00,51.0,37.0,30.27,East,80,7.0,7.0,58,0.00,,,0.00,,2013-05-25 09:11:00,
2013-05-25 04:21:00,51.0,37.0,30.27,East,80,7.0,7.0,58,0.00,,,0.00,,2013-05-25 09:21:00,
2013-05-25 04:33:00,51.0,35.0,30.33,East,80,0.0,7.0,54,0.00,,,0.00,,2013-05-25 09:33:00,
2013-05-25 04:42:00,51.0,35.0,30.33,East,80,0.0,7.0,54,0.00,,,0.00,,2013-05-25 09:42:00,
2013-05-25 04:53:00,51.0,35.0,30.33,East,80,0.0,0.0,54,0.00,,,0.00,,2013-05-25 09:53:00,
2013-05-25 05:02:00,51.0,35.0,30.33,East,80,0.0,0.0,54,0.00,,,0.00,,2013-05-25 10:02:00,
2013-05-25 05:12:00,51.0,35.0,30.33,East,80,0.0,0.0,54,0.00,,,0.00,,2013-05-25 10:12:00,
2013-05-25 05:22:00,51.0,35.0,30.33,East,80,0.0,0.0,54,0.00,,,0.00,,2013-05-25 10:22:00,
2013-05-25 05:32:00,50.0,35.0,30.33,ENE,70,3.0,3.0,56,0.00,,,0.00,,2013-05-25 10:32:00,
2013-05-25 05:42:00,50.0,35.0,30.33,ENE,70,3.0,3.0,56,0.00,,,0.00,,2013-05-25 10:42:00,
2013-05-25 05:52:00,50.0,35.0,30.33,ENE,70,3.0,3.0,56,0.00,,,0.00,,2013-05-25 10:52:00,
2013-05-25 06:02:00,50.0,35.0,30.33,ENE,70,3.0,3.0,56,0.00,,,0.00,,2013-05-25 11:02:00,
2013-05-25 06:12:00,50.0,35.0,30.33,ENE,70,3.0,3.0,56,0.00,,,0.00,,2013-05-25 11:12:00,
2013-05-25 06:22:00,50.0,35.0,30.33,ENE,70,3.0,3.0,56,0.00,,,0.00,,2013-05-25 11:22:00,
2013-05-25 06:32:00,51.0,35.0,30.35,East,80,6.0,6.0,54,0.00,,,0.00,,2013-05-25 11:32:00,
2013-05-25 06:41:00,51.0,35.0,30.35,East,80,6.0,6.0,54,0.00,,,0.00,,2013-05-25 11:41:00,
2013-05-25 06:52:00,51.0,35.0,30.35,East,80,6.0,6.0,54,0.00,,,0.00,,2013-05-25 11:52:00,
2013-05-25 07:01:00,51.0,35.0,30.35,East,80,6.0,6.0,54,0.00,,,0.00,,2013-05-25 12:01:00,
2013-05-25 07:12:00,51.0,35.0,30.35,East,80,6.0,6.0,54,0.00,,,0.00,,2013-05-25 12:12:00,
2013-05-25 07:22:00,51.0,35.0,30.35,East,80,6.0,6.0,54,0.00,,,0.00,,2013-05-25 12:22:00,
2013-05-25 07:32:00,51.0,34.0,30.38,ENE,70,3.0,6.0,51,0.00,,,0.00,,2013-05-25 12:32:00,
2013-05-25 07:42:00,51.0,34.0,30.38,ENE,70,3.0,6.0,51,0.00,,,0.00,,2013-05-25 12:42:00,
2013-05-25 07:52:00,51.0,34.0,30.38,ENE,70,3.0,3.0,51,0.00,,,0.00,,2013-05-25 12:52:00,
2013-05-25 08:02:00,51.0,34.0,30.38,ENE,70,3.0,3.0,51,0.00,,,0.00,,2013-05-25 13:02:00,
2013-05-25 08:11:00,51.0,34.0,30.38,ENE,70,3.0,3.0,51,0.00,,,0.00,,2013-05-25 13:11:00,
2013-05-25 08:21:00,51.0,34.0,30.38,ENE,70,3.0,3.0,51,0.00,,,0.00,,2013-05-25 13:21:00,
2013-05-25 08:32:00,51.0,33.0,30.33,SSE,160,10.0,10.0,49,0.00,,,0.00,,2013-05-25 13:32:00,
2013-05-25 08:42:00,51.0,33.0,30.33,SSE,160,10.0,10.0,49,0.00,,,0.00,,2013-05-25 13:42:00,
2013-05-25 08:52:00,51.0,33.0,30.33,SSE,160,10.0,10.0,49,0.00,,,0.00,,2013-05-25 13:52:00,
2013-05-25 09:02:00,51.0,33.0,30.33,SSE,160,10.0,10.0,49,0.00,,,0.00,,2013-05-25 14:02:00,
2013-05-25 09:11:00,51.0,33.0,30.33,SSE,160,10.0,10.0,49,0.00,,,0.00,,2013-05-25 14:11:00,
2013-05-25 09:22:00,51.0,33.0,30.33,SSE,160,10.0,10.0,49,0.00,,,0.00,,2013-05-25 14:22:00,
2013-05-25 09:32:00,52.0,38.0,30.35,East,80,8.0,10.0,58,0.00,,,0.00,,2013-05-25 14:32:00,
2013-05-25 09:42:00,52.0,38.0,30.35,East,80,8.0,10.0,58,0.00,,,0.00,,2013-05-25 14:42:00,
2013-05-25 09:52:00,52.0,38.0,30.35,East,80,8.0,10.0,58,0.00,,,0.00,,2013-05-25 14:52:00,
2013-05-25 10:01:00,52.0,38.0,30.35,East,80,8.0,8.0,58,0.00,,,0.00,,2013-05-25 15:01:00,
2013-05-25 10:11:00,52.0,38.0,30.35,East,80,8.0,8.0,58,0.00,,,0.00,,2013-05-25 15:11:00,
2013-05-25 10:22:00,52.0,38.0,30.35,East,80,8.0,8.0,58,0.00,,,0.00,,2013-05-25 15:22:00,
2013-05-25 10:33:00,52.0,38.0,30.36,East,90,6.0,8.0,58,0.00,,,0.00,,2013-05-25 15:33:00,
2013-05-25 10:43:00,52.0,38.0,30.36,East,90,6.0,8.0,58,0.00,,,0.00,,2013-05-25 15:43:00,
2013-05-25 10:53:00,52.0,38.0,30.36,East,90,6.0,8.0,58,0.00,,,0.00,,2013-05-25 15:53:00,
2013-05-25 11:03:00,52.0,38.0,30.36,East,90,6.0,6.0,58,0.00,,,0.00,,2013-05-25 16:03:00,
2013-05-25 11:12:00,52.0,38.0,30.36,East,90,6.0,6.0,58,0.00,,,0.00,,2013-05-25 16:12:00,
2013-05-25 11:23:00,52.0,38.0,30.36,East,90,6.0,6.0,58,0.00,,,0.00,,2013-05-25 16:23:00,
2013-05-25 11:32:00,53.0,36.0,30.39,East,90,0.0,6.0,52,0.00,,,0.00,,2013-05-25 16:32:00,
2013-05-25 11:42:00,53.0,36.0,30.39,East,90,0.0,6.0,52,0.00,,,0.00,,2013-05-25 16:42:00,
2013-05-25 11:52:00,53.0,36.0,30.39,East,90,0.0,6.0,52,0.00,,,0.00,,2013-05-25 16:52:00,
2013-05-25 12:02:00,50.0,44.0,30.42,WSW,250,3.0,3.0,79,0.05,,,0.05,,2013-05-25 17:02:00,
2013-05-25 12:11:00,50.0,44.0,30.42,WSW,250,3.0,3.0,79,0.05,,,0.05,,2013-05-25 17:11:00,
2013-05-25 12:22:00,50.0,44.0,30.42,WSW,250,3.0,3.0,79,0.05,,,0.05,,2013-05-25 17:22:00,
2013-05-25 12:32:00,49.0,44.0,30.40,South,180,3.0,3.0,83,0.10,,,0.10,,2013-05-25 17:32:00,
2013-05-25 12:42:00,49.0,44.0,30.40,South,180,3.0,3.0,83,0.10,,,0.10,,2013-05-25 17:42:00,
2013-05-25 12:52:00,49.0,44.0,30.40,South,180,3.0,3.0,83,0.10,,,0.10,,2013-05-25 17:52:00,
2013-05-25 13:01:00,48.0,44.0,30.36,SE,130,7.0,7.0,86,0.05,,,0.10,,2013-05-25 18:01:00,
2013-05-25 13:11:00,48.0,44.0,30.36,SE,130,7.0,7.0,86,0.05,,,0.10,,2013-05-25 18:11:00,
2013-05-25 13:21:00,48.0,44.0,30.36,SE,130,7.0,7.0,86,0.05,,,0.10,,2013-05-25 18:21:00,
2013-05-25 13:32:00,49.0,44.0,30.30,SE,130,12.0,12.0,83,0.11,,,0.21,,2013-05-25 18:32:00,
2013-05-25 13:42:00,49.0,44.0,30.30,SE,130,12.0,12.0,83,0.11,,,0.21,,2013-05-25 18:42:00,
2013-05-25 13:52:00,49.0,44.0,30.30,SE,130,12.0,12.0,83,0.11,,,0.21,,2013-05-25 18:52:00,
2013-05-25 14:01:00,49.0,44.0,30.30,SE,130,12.0,12.0,83,0.11,,,0.21,,2013-05-25 19:01:00,
2013-05-25 14:11:00,49.0,44.0,30.30,SE,130,12.0,12.0,83,0.11,,,0.21,,2013-05-25 19:11:00,
2013-05-25 14:21:00,49.0,44.0,30.30,SE,130,12.0,12.0,83,0.11,,,0.21,,2013-05-25 19:21:00,
2013-05-25 14:32:00,50.0,47.0,30.30,East,100,5.0,12.0,89,0.17,,,0.38,,2013-05-25 19:32:00,
2013-05-25 14:42:00,50.0,47.0,30.30,East,100,5.0,12.0,89,0.17,,,0.38,,2013-05-25 19:42:00,
2013-05-25 14:52:00,50.0,47.0,30.30,East,100,5.0,5.0,89,0.17,,,0.38,,2013-05-25 19:52:00,
2013-05-25 15:02:00,50.0,47.0,30.30,East,100,5.0,5.0,89,0.17,,,0.38,,2013-05-25 20:02:00,
2013-05-25 15:11:00,50.0,47.0,30.30,East,100,5.0,5.0,89,0.17,,,0.38,,2013-05-25 20:11:00,
2013-05-25 15:21:00,50.0,47.0,30.30,East,100,5.0,5.0,89,0.17,,,0.38,,2013-05-25 20:21:00,
2013-05-25 15:32:00,51.0,48.0,30.24,ESE,120,9.0,9.0,89,0.04,,,0.42,,2013-05-25 20:32:00,
2013-05-25 15:42:00,51.0,48.0,30.24,ESE,120,9.0,9.0,89,0.04,,,0.42,,2013-05-25 20:42:00,
2013-05-25 15:52:00,51.0,48.0,30.24,ESE,120,9.0,9.0,89,0.04,,,0.42,,2013-05-25 20:52:00,
2013-05-25 16:02:00,51.0,48.0,30.24,ESE,120,9.0,9.0,89,0.04,,,0.42,,2013-05-25 21:02:00,
2013-05-25 16:11:00,51.0,48.0,30.24,ESE,120,9.0,9.0,89,0.04,,,0.42,,2013-05-25 21:11:00,
2013-05-25 16:21:00,51.0,48.0,30.24,ESE,120,9.0,9.0,89,0.04,,,0.42,,2013-05-25 21:21:00,
2013-05-25 16:33:00,53.0,49.0,30.28,ESE,120,6.0,9.0,85,0.05,,,0.47,,2013-05-25 21:33:00,
2013-05-25 16:43:00,53.0,49.0,30.28,ESE,120,6.0,9.0,85,0.05,,,0.47,,2013-05-25 21:43:00,
2013-05-25 16:53:00,53.0,49.0,30.28,ESE,120,6.0,9.0,85,0.05,,,0.47,,2013-05-25 21:53:00,
2013-05-25 17:03:00,53.0,49.0,30.28,ESE,120,6.0,6.0,85,0.05,,,0.47,,2013-05-25 22:03:00,
2013-05-25 17:12:00,53.0,49.0,30.28,ESE,120,6.0,6.0,85,0.05,,,0.47,,2013-05-25 22:12:00,
2013-05-25 17:23:00,53.0,49.0,30.28,ESE,120,6.0,6.0,85,0.05,,,0.47,,2013-05-25 22:23:00,
2013-05-25 17:32:00,53.0,49.0,30.29,ENE,60,8.0,8.0,85,0.00,,,0.47,,2013-05-25 22:32:00,
2013-05-25 17:42:00,53.0,49.0,30.29,ENE,60,8.0,8.0,85,0.00,,,0.47,,2013-05-25 22:42:00,
2013-05-25 17:52:00,53.0,49.0,30.29,ENE,60,8.0,8.0,85,0.00,,,0.47,,2013-05-25 22:52:00,
2013-05-25 18:02:00,53.0,49.0,30.29,ENE,60,8.0,8.0,85,0.00,,,0.47,,2013-05-25 23:02:00,
2013-05-25 18:12:00,53.0,49.0,30.29,ENE,60,8.0,8.0,85,0.00,,,0.47,,2013-05-25 23:12:00,
2013-05-25 18:22:00,53.0,49.0,30.29,ENE,60,8.0,8.0,85,0.00,,,0.47,,2013-05-25 23:22:00,
2013-05-25 18:32:00,53.0,49.0,30.27,ENE,70,10.0,10.0,85,0.00,,,0.47,,2013-05-25 23:32:00,
2013-05-25 18:42:00,53.0,49.0,30.27,ENE,70,10.0,10.0,85,0.00,,,0.47,,2013-05-25 23:42:00,
2013-05-25 18:52:00,53.0,49.0,30.27,ENE,70,10.0,10.0,85,0.00,,,0.47,,2013-05-25 23:52:00,
2013-05-25 19:01:00,53.0,49.0,30.27,ENE,70,10.0,10.0,85,0.00,,,0.47,,2013-05-26 00:01:00,
2013-05-25 19:11:00,53.0,49.0,30.27,ENE,70,10.0,10.0,85,0.00,,,0.47,,2013-05-26 00:11:00,
2013-05-25 19:22:00,53.0,49.0,30.27,ENE,70,10.0,10.0,85,0.00,,,0.47,,2013-05-26 00:22:00,
2013-05-25 19:31:00,53.0,49.0,30.26,ENE,70,10.0,10.0,85,0.00,,,0.47,,2013-05-26 00:31:00,
2013-05-25 19:42:00,53.0,49.0,30.26,ENE,70,10.0,10.0,85,0.00,,,0.47,,2013-05-26 00:42:00,
2013-05-25 19:52:00,53.0,49.0,30.26,ENE,70,10.0,10.0,85,0.00,,,0.47,,2013-05-26 00:52:00,
2013-05-25 20:01:00,53.0,49.0,30.26,ENE,70,10.0,10.0,85,0.00,,,0.47,,2013-05-26 01:01:00,
2013-05-25 20:11:00,53.0,49.0,30.26,ENE,70,10.0,10.0,85,0.00,,,0.47,,2013-05-26 01:11:00,
2013-05-25 20:21:00,53.0,49.0,30.26,ENE,70,10.0,10.0,85,0.00,,,0.47,,2013-05-26 01:21:00,
2013-05-25 20:32:00,53.0,48.0,30.25,ENE,70,16.0,16.0,82,0.00,,,0.47,,2013-05-26 01:32:00,
2013-05-25 20:42:00,53.0,48.0,30.25,ENE,70,16.0,16.0,82,0.00,,,0.47,,2013-05-26 01:42:00,
2013-05-25 20:53:00,53.0,48.0,30.25,ENE,70,16.0,16.0,82,0.00,,,0.47,,2013-05-26 01:53:00,
2013-05-25 21:02:00,53.0,48.0,30.25,ENE,70,16.0,16.0,82,0.00,,,0.47,,2013-05-26 02:02:00,
2013-05-25 21:11:00,53.0,48.0,30.25,ENE,70,16.0,16.0,82,0.00,,,0.47,,2013-05-26 02:11:00,
2013-05-25 21:21:00,53.0,48.0,30.25,ENE,70,16.0,16.0,82,0.00,,,0.47,,2013-05-26 02:21:00,
2013-05-25 21:32:00,51.0,46.0,30.25,East,80,16.0,16.0,82,0.00,,,0.47,,2013-05-26 02:32:00,
2013-05-25 21:42:00,51.0,46.0,30.25,East,80,16.0,16.0,82,0.00,,,0.47,,2013-05-26 02:42:00,
2013-05-25 21:52:00,51.0,46.0,30.25,East,80,16.0,16.0,82,0.00,,,0.47,,2013-05-26 02:52:00,
2013-05-25 22:01:00,51.0,46.0,30.25,East,80,16.0,16.0,82,0.00,,,0.47,,2013-05-26 03:01:00,
2013-05-25 22:11:00,51.0,46.0,30.25,East,80,16.0,16.0,82,0.00,,,0.47,,2013-05-26 03:11:00,
2013-05-25 22:21:00,51.0,46.0,30.25,East,80,16.0,16.0,82,0.00,,,0.47,,2013-05-26 03:21:00,
2013-05-25 22:33:00,51.0,46.0,30.26,East,90,10.0,16.0,82,0.00,,,0.47,,2013-05-26 03:33:00,
2013-05-25 22:42:00,51.0,46.0,30.26,East,90,10.0,16.0,82,0.00,,,0.47,,2013-05-26 03:42:00,
2013-05-25 22:53:00,51.0,46.0,30.26,East,90,10.0,16.0,82,0.00,,,0.47,,2013-05-26 03:53:00,
2013-05-25 23:02:00,51.0,46.0,30.26,East,90,10.0,10.0,82,0.00,,,0.47,,2013-05-26 04:02:00,
2013-05-25 23:12:00,51.0,46.0,30.26,East,90,10.0,10.0,82,0.00,,,0.47,,2013-05-26 04:12:00,
2013-05-25 23:23:00,51.0,46.0,30.26,East,90,10.0,10.0,82,0.00,,,0.47,,2013-05-26 04:23:00,
2013-05-25 23:33:00,51.0,47.0,30.26,East,80,10.0,10.0,85,0.00,,,0.47,,2013-05-26 04:33:00,
2013-05-25 23:42:00,51.0,47.0,30.26,East,80,10.0,10.0,85,0.00,,,0.47,,2013-05-26 04:42:00,
2013-05-25 23:52:00,51.0,47.0,30.26,East,80,10.0,10.0,85,0.00,,,0.47,,2013-05-26 04:52:00,